�������l�o���
Date,Time,MP-1(��Sv/h),MP-2(��Sv/h),MP-3(��Sv/h),MP-4(��Sv/h),MP-5(��Sv/h),MP-6(��Sv/h),MP-7(��Sv/h),MP-8(��Sv/h),����,����(m/s),���J
2017/12/15,00:00,0.886,1.480,0.930,1.752,1.186,0.490,0.875,0.842,�k��,4.1,��
2017/12/15,00:10,0.886,1.481,0.931,1.755,1.183,0.489,0.875,0.842,�k��,4.9,��
2017/12/15,00:20,0.886,1.482,0.928,1.753,1.184,0.490,0.875,0.840,�k��,5.7,��
2017/12/15,00:30,0.888,1.480,0.927,1.755,1.186,0.491,0.874,0.841,���k��,4.4,��
2017/12/15,00:40,0.887,1.482,0.929,1.754,1.185,0.490,0.873,0.840,���k��,1.1,��
2017/12/15,00:50,0.888,1.483,0.927,1.753,1.183,0.490,0.876,0.840,�k�k��,1.5,��
2017/12/15,01:00,0.886,1.481,0.927,1.754,1.188,0.490,0.876,0.842,�k�k��,1.8,��
2017/12/15,01:10,0.887,1.479,0.927,1.752,1.187,0.491,0.875,0.840,�k�k��,1.5,��
2017/12/15,01:20,0.885,1.482,0.927,1.753,1.185,0.490,0.874,0.840,�k�k��,2.0,��
2017/12/15,01:30,0.886,1.481,0.928,1.751,1.184,0.491,0.875,0.841,-,CALM,��
2017/12/15,01:40,0.888,1.482,0.929,1.754,1.183,0.490,0.874,0.842,�k�k��,0.8,��
2017/12/15,01:50,0.887,1.480,0.927,1.751,1.183,0.492,0.874,0.842,�k�k��,1.4,��
2017/12/15,02:00,0.886,1.481,0.929,1.752,1.183,0.489,0.875,0.841,�k��,3.2,��
2017/12/15,02:10,0.886,1.479,0.926,1.752,1.184,0.492,0.874,0.840,�k��,3.7,��
2017/12/15,02:20,0.886,1.481,0.926,1.752,1.186,0.491,0.873,0.841,�k��,4.0,��
2017/12/15,02:30,0.888,1.480,0.929,1.752,1.184,0.492,0.874,0.841,�k��,4.2,��
2017/12/15,02:40,0.886,1.481,0.929,1.751,1.184,0.491,0.873,0.841,�k��,4.0,��
2017/12/15,02:50,0.886,1.482,0.926,1.754,1.184,0.490,0.874,0.842,�k��,4.3,��
2017/12/15,03:00,0.886,1.479,0.928,1.754,1.183,0.488,0.874,0.840,�k��,4.1,��
2017/12/15,03:10,0.887,1.481,0.927,1.753,1.184,0.490,0.873,0.840,�k��,4.2,��
2017/12/15,03:20,0.887,1.479,0.926,1.751,1.185,0.490,0.874,0.841,�k��,3.9,��
2017/12/15,03:30,0.887,1.481,0.926,1.751,1.183,0.490,0.874,0.842,�k��,4.2,��
2017/12/15,03:40,0.888,1.481,0.928,1.749,1.182,0.490,0.873,0.841,�k��,3.8,��
2017/12/15,03:50,0.887,1.479,0.927,1.752,1.182,0.489,0.874,0.842,�k��,3.1,��
2017/12/15,04:00,0.885,1.482,0.928,1.750,1.180,0.490,0.873,0.838,���k��,1.7,��
2017/12/15,04:10,0.886,1.479,0.929,1.752,1.182,0.488,0.874,0.841,���k��,1.2,��
2017/12/15,04:20,0.886,1.481,0.930,1.753,1.181,0.490,0.874,0.841,-,CALM,��
2017/12/15,04:30,0.888,1.482,0.926,1.751,1.184,0.490,0.876,0.839,-,CALM,��
2017/12/15,04:40,0.888,1.480,0.928,1.753,1.182,0.490,0.873,0.842,�k,1.2,��
2017/12/15,04:50,0.889,1.477,0.926,1.751,1.185,0.490,0.874,0.842,�k�k��,3.9,��
2017/12/15,05:00,0.888,1.483,0.929,1.752,1.182,0.490,0.875,0.842,�k��,5.0,��
2017/12/15,05:10,0.887,1.481,0.929,1.755,1.184,0.489,0.873,0.842,�k��,5.0,��
2017/12/15,05:20,0.888,1.480,0.927,1.753,1.183,0.490,0.874,0.841,�k�k��,3.6,��
2017/12/15,05:30,0.887,1.479,0.929,1.754,1.183,0.490,0.876,0.840,�k�k��,3.5,��
2017/12/15,05:40,0.887,1.479,0.927,1.753,1.183,0.490,0.876,0.840,�k��,4.5,��
2017/12/15,05:50,0.886,1.482,0.929,1.751,1.184,0.490,0.875,0.841,���k��,3.0,��
2017/12/15,06:00,0.887,1.479,0.928,1.752,1.183,0.489,0.874,0.841,��,2.6,��
2017/12/15,06:10,0.886,1.480,0.929,1.754,1.183,0.490,0.874,0.840,���쐼,2.6,��
2017/12/15,06:20,0.885,1.481,0.929,1.752,1.182,0.490,0.873,0.841,���쐼,2.6,��
2017/12/15,06:30,0.886,1.480,0.926,1.753,1.180,0.490,0.875,0.842,���쐼,1.5,��
2017/12/15,06:40,0.887,1.481,0.928,1.755,1.181,0.490,0.874,0.842,��,1.7,��
2017/12/15,06:50,0.885,1.480,0.926,1.750,1.183,0.490,0.875,0.841,��,1.7,��
2017/12/15,07:00,0.886,1.477,0.925,1.754,1.183,0.489,0.874,0.841,���k��,0.8,��
2017/12/15,07:10,0.887,1.477,0.927,1.751,1.183,0.490,0.876,0.841,�k�k��,0.8,��
2017/12/15,07:20,0.886,1.481,0.929,1.750,1.182,0.489,0.875,0.841,���쐼,2.0,��
2017/12/15,07:30,0.887,1.478,0.927,1.749,1.180,0.488,0.874,0.842,��,3.6,��
2017/12/15,07:40,0.887,1.480,0.927,1.753,1.183,0.491,0.875,0.841,���k��,1.2,��
2017/12/15,07:50,0.886,1.478,0.927,1.752,1.184,0.490,0.874,0.843,-,CALM,��
2017/12/15,08:00,0.887,1.479,0.927,1.753,1.183,0.490,0.874,0.841,�k��,1.1,��
2017/12/15,08:10,0.886,1.480,0.928,1.753,1.183,0.491,0.874,0.841,���k��,0.9,��
2017/12/15,08:20,0.886,1.479,0.928,1.755,1.183,0.491,0.876,0.843,��,1.2,��
2017/12/15,08:30,0.888,1.480,0.928,1.754,1.182,0.490,0.876,0.842,-,CALM,��
2017/12/15,08:40,0.889,1.480,0.928,1.754,1.185,0.490,0.877,0.840,�k,1.2,��
2017/12/15,08:50,0.889,1.480,0.928,1.754,1.184,0.491,0.875,0.843,�k��,1.5,��
2017/12/15,09:00,0.890,1.480,0.929,1.756,1.183,0.490,0.877,0.843,�k�k��,0.6,��
2017/12/15,09:10,0.888,1.482,0.927,1.755,1.184,0.490,0.878,0.843,-,CALM,��
2017/12/15,09:20,0.890,1.483,0.932,1.756,1.183,0.492,0.877,0.841,-,CALM,��
2017/12/15,09:30,0.889,1.482,0.930,1.755,1.185,0.491,0.876,0.843,-,CALM,��
2017/12/15,09:40,0.889,1.481,0.928,1.757,1.188,0.489,0.875,0.842,-,CALM,��
2017/12/15,09:50,0.891,1.480,0.930,1.755,1.188,0.491,0.875,0.842,���k��,0.6,��
2017/12/15,10:00,0.893,1.483,0.933,1.756,1.187,0.491,0.872,0.842,���k��,0.6,��
2017/12/15,10:10,0.891,1.482,0.931,1.759,1.189,0.491,0.874,0.844,���k��,1.5,��
2017/12/15,10:20,0.890,1.486,0.931,1.759,1.188,0.492,0.873,0.844,���k��,2.5,��
2017/12/15,10:30,0.893,1.485,0.931,1.756,1.189,0.492,0.873,0.843,�k�k��,2.0,��
2017/12/15,10:40,0.894,1.480,0.931,1.757,1.190,0.493,0.874,0.844,�k,1.7,��
2017/12/15,10:50,0.893,1.463,0.931,1.760,1.191,0.495,0.873,0.843,�k��,3.5,��
2017/12/15,11:00,0.893,1.468,0.930,1.760,1.188,0.493,0.874,0.843,�k��,3.9,��
2017/12/15,11:10,0.891,1.465,0.930,1.759,1.189,0.492,0.875,0.845,��,1.7,��
2017/12/15,11:20,0.891,1.467,0.932,1.760,1.191,0.493,0.879,0.846,�쐼,5.5,��
2017/12/15,11:30,0.893,1.468,0.931,1.757,1.192,0.493,0.875,0.843,��,3.6,��
2017/12/15,11:40,0.892,1.470,0.931,1.757,1.189,0.493,0.874,0.844,��,5.9,��
2017/12/15,11:50,0.893,1.471,0.933,1.760,1.189,0.493,0.878,0.844,���k��,7.0,��
2017/12/15,12:00,0.895,1.482,0.934,1.760,1.193,0.493,0.878,0.844,���쐼,6.8,��
2017/12/15,12:10,0.893,1.483,0.934,1.762,1.190,0.495,0.878,0.846,���쐼,6.1,��
2017/12/15,12:20,0.894,1.487,0.934,1.763,1.190,0.493,0.878,0.843,��,5.5,��
2017/12/15,12:30,0.894,1.485,0.935,1.760,1.192,0.494,0.877,0.847,���k��,4.5,��
2017/12/15,12:40,0.893,1.483,0.934,1.763,1.193,0.494,0.879,0.844,���k��,7.6,��
2017/12/15,12:50,0.893,1.480,0.933,1.761,1.193,0.493,0.880,0.844,��,7.8,��
2017/12/15,13:00,0.892,1.480,0.937,1.761,1.192,0.494,0.880,0.845,��,7.0,��
2017/12/15,13:10,0.889,1.481,0.934,1.762,1.194,0.493,0.882,0.843,��,6.4,��
2017/12/15,13:20,0.890,1.481,0.935,1.763,1.193,0.493,0.881,0.844,��,7.0,��
2017/12/15,13:30,0.893,1.480,0.933,1.762,1.190,0.495,0.881,0.842,��,6.9,��
2017/12/15,13:40,0.889,1.479,0.936,1.762,1.193,0.493,0.879,0.843,��,8.5,��
2017/12/15,13:50,0.891,1.478,0.934,1.763,1.195,0.495,0.879,0.843,��,6.4,��
2017/12/15,14:00,0.893,1.482,0.933,1.761,1.193,0.494,0.880,0.844,���k��,7.4,��
2017/12/15,14:10,0.895,1.478,0.935,1.760,1.195,0.495,0.882,0.845,���k��,6.6,��
2017/12/15,14:20,0.894,1.479,0.935,1.759,1.194,0.495,0.881,0.845,��,6.0,��
2017/12/15,14:30,0.894,1.483,0.936,1.765,1.195,0.494,0.882,0.846,���k��,6.9,��
2017/12/15,14:40,0.894,1.482,0.934,1.765,1.192,0.495,0.881,0.844,���k��,5.4,��
2017/12/15,14:50,0.897,1.485,0.934,1.762,1.195,0.495,0.881,0.844,���k��,7.0,��
2017/12/15,15:00,0.896,1.482,0.935,1.763,1.193,0.494,0.881,0.845,���k��,7.2,��
2017/12/15,15:10,0.894,1.484,0.938,1.763,1.192,0.495,0.881,0.843,���k��,7.4,��
2017/12/15,15:20,0.894,1.489,0.938,1.762,1.193,0.493,0.882,0.844,���k��,6.3,��
2017/12/15,15:30,0.896,1.488,0.936,1.764,1.194,0.495,0.881,0.843,���k��,8.0,��
2017/12/15,15:40,0.896,1.486,0.935,1.764,1.193,0.496,0.879,0.845,���k��,7.1,��
2017/12/15,15:50,0.894,1.488,0.936,1.761,1.191,0.496,0.880,0.844,���k��,5.5,��
2017/12/15,16:00,0.893,1.486,0.936,1.763,1.194,0.496,0.879,0.844,���k��,5.6,��
2017/12/15,16:10,0.894,1.485,0.935,1.763,1.195,0.494,0.880,0.844,���k��,6.3,��
2017/12/15,16:20,0.895,1.488,0.934,1.764,1.192,0.494,0.880,0.843,��,5.2,��
2017/12/15,16:30,0.890,1.488,0.934,1.762,1.192,0.494,0.879,0.844,��,4.8,��
2017/12/15,16:40,0.892,1.489,0.934,1.762,1.191,0.494,0.880,0.844,��,4.8,��
2017/12/15,16:50,0.892,1.488,0.936,1.758,1.192,0.494,0.878,0.843,��,4.3,��
2017/12/15,17:00,0.897,1.488,0.935,1.760,1.193,0.494,0.880,0.845,��,3.5,��
2017/12/15,17:10,0.893,1.490,0.933,1.760,1.192,0.493,0.880,0.844,��,4.0,��
2017/12/15,17:20,0.895,1.487,0.934,1.762,1.194,0.494,0.878,0.845,���쐼,5.5,��
2017/12/15,17:30,0.895,1.489,0.934,1.760,1.193,0.494,0.878,0.846,��,4.5,��
2017/12/15,17:40,0.897,1.491,0.935,1.761,1.193,0.493,0.879,0.843,��,4.4,��
2017/12/15,17:50,0.898,1.488,0.934,1.759,1.194,0.494,0.880,0.845,��,4.5,��
2017/12/15,18:00,0.897,1.488,0.937,1.762,1.194,0.495,0.880,0.843,��,5.1,��
2017/12/15,18:10,0.896,1.490,0.937,1.763,1.191,0.493,0.878,0.843,��,4.5,��
2017/12/15,18:20,0.898,1.487,0.936,1.760,1.189,0.493,0.877,0.846,���쐼,4.3,��
2017/12/15,18:30,0.899,1.490,0.935,1.762,1.192,0.493,0.879,0.844,���쐼,5.4,��
2017/12/15,18:40,0.899,1.488,0.934,1.762,1.191,0.493,0.879,0.842,���쐼,6.0,��
2017/12/15,18:50,0.897,1.487,0.933,1.759,1.190,0.494,0.879,0.843,���쐼,4.9,��
2017/12/15,19:00,0.897,1.488,0.933,1.762,1.192,0.494,0.877,0.842,��,4.3,��
2017/12/15,19:10,0.895,1.489,0.933,1.761,1.189,0.493,0.878,0.844,��,4.1,��
2017/12/15,19:20,0.896,1.487,0.932,1.762,1.191,0.492,0.877,0.842,��,4.6,��
2017/12/15,19:30,0.895,1.488,0.936,1.760,1.190,0.492,0.878,0.844,��,4.6,��
2017/12/15,19:40,0.897,1.488,0.935,1.763,1.193,0.492,0.877,0.843,��,3.5,��
2017/12/15,19:50,0.896,1.487,0.935,1.760,1.191,0.495,0.876,0.843,�k��,1.2,��
2017/12/15,20:00,0.896,1.488,0.932,1.760,1.194,0.493,0.876,0.840,�k��,1.2,��
2017/12/15,20:10,0.897,1.487,0.932,1.764,1.190,0.493,0.876,0.840,���k��,1.2,��
2017/12/15,20:20,0.896,1.489,0.933,1.760,1.191,0.493,0.878,0.841,�k��,0.9,��
2017/12/15,20:30,0.899,1.489,0.933,1.761,1.188,0.493,0.875,0.841,���k��,1.5,��
2017/12/15,20:40,0.898,1.487,0.935,1.757,1.192,0.494,0.880,0.841,�쐼,0.6,��
2017/12/15,20:50,0.898,1.487,0.934,1.760,1.193,0.493,0.876,0.842,��쐼,0.6,��
2017/12/15,21:00,0.897,1.484,0.934,1.760,1.191,0.492,0.877,0.842,��,1.1,��
2017/12/15,21:10,0.897,1.489,0.932,1.765,1.190,0.493,0.878,0.842,��쐼,1.5,��
2017/12/15,21:20,0.897,1.490,0.934,1.759,1.192,0.493,0.878,0.842,���쐼,1.2,��
2017/12/15,21:30,0.897,1.489,0.932,1.762,1.191,0.494,0.878,0.844,���쐼,1.9,��
2017/12/15,21:40,0.898,1.490,0.934,1.759,1.192,0.493,0.877,0.844,���쐼,1.2,��
2017/12/15,21:50,0.896,1.488,0.933,1.761,1.189,0.493,0.877,0.843,�쐼,0.8,��
2017/12/15,22:00,0.895,1.487,0.933,1.759,1.191,0.493,0.877,0.843,��,0.6,��
2017/12/15,22:10,0.900,1.488,0.936,1.759,1.192,0.494,0.876,0.843,��,0.9,��
2017/12/15,22:20,0.897,1.489,0.933,1.761,1.191,0.493,0.879,0.843,���쐼,1.2,��
2017/12/15,22:30,0.897,1.490,0.935,1.759,1.191,0.493,0.878,0.845,�쐼,1.2,��
2017/12/15,22:40,0.898,1.491,0.935,1.761,1.191,0.492,0.878,0.842,�쐼,1.2,��
2017/12/15,22:50,0.898,1.487,0.935,1.761,1.194,0.493,0.878,0.845,��쐼,1.1,��
2017/12/15,23:00,0.896,1.490,0.933,1.760,1.190,0.495,0.877,0.845,�쐼,1.7,��
2017/12/15,23:10,0.898,1.487,0.935,1.763,1.190,0.493,0.878,0.845,�쐼,1.5,��
2017/12/15,23:20,0.899,1.490,0.935,1.762,1.193,0.494,0.880,0.843,��쐼,1.5,��
2017/12/15,23:30,0.897,1.487,0.937,1.760,1.193,0.493,0.880,0.844,���쐼,1.9,��
2017/12/15,23:40,0.899,1.488,0.934,1.762,1.194,0.493,0.879,0.843,��,2.3,��
2017/12/15,23:50,0.897,1.489,0.935,1.761,1.194,0.495,0.879,0.844,��,1.9,��
